"Pseudo-MPEC" for C00YGQ5

Created 2020 Mar 3 16:07:02 UT using Find_Orb

Click here for an explanation of pseudo-MPECs

 
 Astrometry: 
     C00YGQ5  C2020 02 21C53FAcAstrometryWk:pXhf.yxm\)%2Uwiredacted;d2VvclickV00
     C00YGQ5  C2020 02 21l)Y6rl6:/G_J==8)%7[rMdR:sO)]:3bwFRp8herehdiIL`@djU%LV00
     C00YGQ5  C2020 02 21\D$v=TZUJtB2KieA[-_]wb/])M']\-/?Q4oHBOWlI$OCCJ$Q0b(rV00
     C00YGQ5  C2020 02 21KeUSG8i.H._\XaX-?J1?(for`bL0@#@\+mbJH;K;*explanationV00

Station data:
(V00) Kitt Peak-Bok  (N31.963127 W111.600190)  US/Arizona.

Orbital elements:  C00YGQ5
   Perihelion 2020 Mar 8.766787 +/- 46 TT = 18:24:10 (JD 2458917.266787)
Epoch 2020 Feb 21.0 TT = JDT 2458900.5   Earth MOID: 0.4186   AutoNEOCP
M 356.16081480 +/- 18               (J2000 ecliptic)
n   0.22897560 +/- 0.246            Peri.   27.66011 +/- 70
a   2.64612228 +/- 1.89             Node   133.59750 +/- 44
e   0.4741037 +/- 0.254             Incl.   14.43411 +/- 7
P   4.30                   H 23.2   G  0.15   U 11.8  SR
q 1.39158574 +/- 0.342    Q 3.90065882 +/- 123
From 4 observations 2020 Feb. 21 (13.7 min); mean residual 0".18
Residuals in arcseconds: 
200221 V00  .17+  .13-    200221 V00  .21+  .02-    
200221 V00  .35-  .21+    200221 V00  .02-  .05-    

Ephemerides (geocentric):
Date (UTC) HH   RA              Dec         delta   r     elong  mag " sig PA
---- -- -- --  -------------   -----------  ------ ------ -----  --- ---- ---
2020 03 03 16  10 03 07.640   +31 59 26.40  .43834 1.3925 151.5 23.1  38d   9
2020 03 03 17  10 03 09.906   +32 00 28.63  .43843 1.3925 151.5 23.1  38d   9
2020 03 03 18  10 03 12.176   +32 01 30.77  .43852 1.3925 151.4 23.1  38d   9
2020 03 03 19  10 03 14.449   +32 02 32.82  .43861 1.3925 151.4 23.1  38d   9
2020 03 03 20  10 03 16.725   +32 03 34.78  .43870 1.3925 151.3 23.1  38d   9
2020 03 03 21  10 03 19.003   +32 04 36.64  .43879 1.3925 151.3 23.1  38d   9
2020 03 03 22  10 03 21.285   +32 05 38.41  .43888 1.3924 151.3 23.1  38d  10
2020 03 03 23  10 03 23.570   +32 06 40.08  .43897 1.3924 151.2 23.1  38d  10
2020 03 04 00  10 03 25.857   +32 07 41.67  .43906 1.3924 151.2 23.1  38d  10
2020 03 04 01  10 03 28.148   +32 08 43.15  .43915 1.3924 151.1 23.1  38d  10
2020 03 04 02  10 03 30.441   +32 09 44.55  .43924 1.3924 151.1 23.1  38d  10
2020 03 04 03  10 03 32.738   +32 10 45.85  .43933 1.3924 151.1 23.1  38d  10
2020 03 04 04  10 03 35.037   +32 11 47.05  .43943 1.3924 151.0 23.1  38d  10
2020 03 04 05  10 03 37.340   +32 12 48.17  .43952 1.3923 151.0 23.1  38d  10
2020 03 04 06  10 03 39.645   +32 13 49.19  .43961 1.3923 150.9 23.1  38d  10
2020 03 04 07  10 03 41.954   +32 14 50.11  .43970 1.3923 150.9 23.1  38d  10
2020 03 04 08  10 03 44.265   +32 15 50.94  .43979 1.3923 150.8 23.1  38d  10
2020 03 04 09  10 03 46.580   +32 16 51.68  .43989 1.3923 150.8 23.1  38d  10
2020 03 04 10  10 03 48.897   +32 17 52.32  .43998 1.3923 150.8 23.1  38d  11
2020 03 04 11  10 03 51.217   +32 18 52.87  .44007 1.3923 150.7 23.1  38d  11
2020 03 04 12  10 03 53.541   +32 19 53.32  .44017 1.3922 150.7 23.1  38d  11
2020 03 04 13  10 03 55.867   +32 20 53.68  .44026 1.3922 150.6 23.1  38d  11
2020 03 04 14  10 03 58.197   +32 21 53.94  .44036 1.3922 150.6 23.1  38d  11
2020 03 04 15  10 04 00.529   +32 22 54.11  .44045 1.3922 150.6 23.1  38d  11
2020 03 04 16  10 04 02.864   +32 23 54.18  .44055 1.3922 150.5 23.1  38d  11
2020 03 04 17  10 04 05.203   +32 24 54.16  .44064 1.3922 150.5 23.1  38d  11
2020 03 04 18  10 04 07.544   +32 25 54.04  .44074 1.3922 150.4 23.1  38d  11
2020 03 04 19  10 04 09.889   +32 26 53.83  .44083 1.3922 150.4 23.1  39d  11
2020 03 04 20  10 04 12.236   +32 27 53.53  .44093 1.3921 150.3 23.1  39d  11
2020 03 04 21  10 04 14.587   +32 28 53.12  .44102 1.3921 150.3 23.1  39d  11
2020 03 04 22  10 04 16.940   +32 29 52.63  .44112 1.3921 150.3 23.1  39d  11
2020 03 04 23  10 04 19.297   +32 30 52.03  .44121 1.3921 150.2 23.1  39d  11
2020 03 05 00  10 04 21.656   +32 31 51.35  .44131 1.3921 150.2 23.1  39d  11
2020 03 05 01  10 04 24.019   +32 32 50.56  .44141 1.3921 150.1 23.1  39d  11
2020 03 05 02  10 04 26.384   +32 33 49.68  .44151 1.3921 150.1 23.1  39d  11
2020 03 05 03  10 04 28.753   +32 34 48.71  .44160 1.3921 150.1 23.1  39d  11
2020 03 05 04  10 04 31.124   +32 35 47.64  .44170 1.3921 150.0 23.1  39d  11
2020 03 05 05  10 04 33.499   +32 36 46.47  .44180 1.3920 150.0 23.1  39d  11
2020 03 05 06  10 04 35.877   +32 37 45.21  .44190 1.3920 149.9 23.1  39d  11
2020 03 05 07  10 04 38.257   +32 38 43.85  .44200 1.3920 149.9 23.1  39d  11
2020 03 05 08  10 04 40.641   +32 39 42.40  .44209 1.3920 149.9 23.1  39d  12
2020 03 05 09  10 04 43.028   +32 40 40.85  .44219 1.3920 149.8 23.1  39d  12
2020 03 05 10  10 04 45.418   +32 41 39.21  .44229 1.3920 149.8 23.1  39d  12
2020 03 05 11  10 04 47.810   +32 42 37.46  .44239 1.3920 149.7 23.1  39d  12
2020 03 05 12  10 04 50.206   +32 43 35.63  .44249 1.3920 149.7 23.1  39d  12
2020 03 05 13  10 04 52.605   +32 44 33.69  .44259 1.3920 149.6 23.1  39d  12
2020 03 05 14  10 04 55.007   +32 45 31.66  .44269 1.3920 149.6 23.1  39d  12
2020 03 05 15  10 04 57.412   +32 46 29.53  .44279 1.3919 149.6 23.1  39d  12